Leakey, Texas, United States (78873)
Lat: 29.73N, Lon: 99.76W
Wx Zone: TXZ185
Local Info
Past Weather Observations for Monday, May 18, 2015

NOTE: This archive is for the closest National Weather Service station to Leakey. Information may differ from the station used for current weather conditions.

Click here for Long-term Archive

Time Weather Temperature Dewpoint Humidity Pressure Winds Precip Visibility
23:55
Overcast
73°F / 23°C 68°F / 20°C 83% 30.09 in
(1019 mb)
SE 15 mph
(SE 24 kph)
- 7SM
23:35
Mostly Cloudy
73°F / 23°C 68°F / 20°C 83% 30.09 in
(1019 mb)
SE 15 mph
(SE 24 kph)
- 7SM
23:15
Mostly Cloudy
73°F / 23°C 68°F / 20°C 83% 30.09 in
(1019 mb)
SE 12.7 mph
(SE 20 kph)
- 8SM
22:55
Mostly Cloudy
73°F / 23°C 70°F / 21°C 89% 30.09 in
(1019 mb)
SE 17.3 mph
(SE 28 kph)
- 7SM
22:35
Overcast
75°F / 24°C 70°F / 21°C 83% 30.09 in
(1019 mb)
SE 12.7 mph
(SE 20 kph)
- 7SM
22:15
Mostly Cloudy
75°F / 24°C 70°F / 21°C 83% 30.09 in
(1019 mb)
SE 12.7 mph
(SE 20 kph)
- 7SM
21:55
Mostly Cloudy
75°F / 24°C 70°F / 21°C 83% 30.09 in
(1019 mb)
SE 9.2 mph
(SE 15 kph)
- 7SM
21:35
Partly Cloudy
75°F / 24°C 70°F / 21°C 83% 30.09 in
(1019 mb)
SE 12.7 mph
(SE 20 kph)
- 7SM
21:15
Mostly Cloudy
Hazy
75°F / 24°C 70°F / 21°C 83% 30.09 in
(1019 mb)
SE 10.4 mph
(SE 17 kph)
- 6SM
20:55
Mostly Cloudy
Hazy
75°F / 24°C 70°F / 21°C 83% 30.09 in
(1019 mb)
SE 12.7 mph
(SE 20 kph)
- 6SM
20:35
Partly Cloudy
Hazy
75°F / 24°C 70°F / 21°C 83% 30.09 in
(1019 mb)
SE 13.8 mph
(SE 22 kph)
- 6SM
20:15
Mostly Cloudy
75°F / 24°C 70°F / 21°C 83% 30.09 in
(1019 mb)
SSE 15 mph
(SSE 24 kph)
- 7SM
19:55
Mostly Cloudy
77°F / 25°C 72°F / 22°C 83% 30.06 in
(1018 mb)
SSE 15 mph
(SSE 24 kph)
- 7SM
19:35
Partly Cloudy
Hazy
77°F / 25°C 70°F / 21°C 79% 30.06 in
(1018 mb)
SE 12.7 mph
(SE 20 kph)
- 5SM
19:15
Partly Cloudy
Hazy
79°F / 26°C 70°F / 21°C 74% 30.06 in
(1018 mb)
SSE 13.8 mph
(SSE 22 kph)
- 5SM
18:55
Partly Cloudy
Hazy
79°F / 26°C 70°F / 21°C 74% 30.04 in
(1017 mb)
SSE 10.4 mph
(SSE 17 kph)
- 5SM
18:35
Partly Cloudy
Hazy
79°F / 26°C 70°F / 21°C 74% 30.06 in
(1018 mb)
SE 11.5 mph
(SE 19 kph)
- 5SM
18:15
Partly Cloudy
Hazy
81°F / 27°C 70°F / 21°C 70% 30.04 in
(1017 mb)
SE 12.7 mph
(SE 20 kph)
- 5SM
17:55
Clear
Hazy
81°F / 27°C 70°F / 21°C 70% 30.04 in
(1017 mb)
SSE 11.5 mph
(SSE 19 kph)
- 5SM
17:35
Clear
Hazy
82°F / 28°C 70°F / 21°C 66% 30.04 in
(1017 mb)
SSE 16.1 mph
(SSE 26 kph)
- 5SM
17:15
Partly Cloudy
Hazy
82°F / 28°C 70°F / 21°C 66% 30.04 in
(1017 mb)
SSE 15 mph
(SSE 24 kph)
- 6SM
16:55
Partly Cloudy
Hazy
84°F / 29°C 72°F / 22°C 66% 30.06 in
(1018 mb)
SSE 16.1 mph
(SSE 26 kph)
- 5SM
16:35
Partly Cloudy
84°F / 29°C 70°F / 21°C 62% 30.04 in
(1017 mb)
SSE 13.8 mph
(SSE 22 kph)
- 7SM
16:15
Partly Cloudy
84°F / 29°C 70°F / 21°C 62% 30.06 in
(1018 mb)
SE 10.4 mph
(SE 17 kph)
- 7SM
15:55
Partly Cloudy
88°F / 31°C 70°F / 21°C 55% 30.06 in
(1018 mb)
SE 11.5 mph
(SE 19 kph)
- 8SM
15:35
Partly Cloudy
86°F / 30°C 70°F / 21°C 59% 30.06 in
(1018 mb)
SE 11.5 mph
(SE 19 kph)
- 7SM
15:15
Partly Cloudy
88°F / 31°C 70°F / 21°C 55% 30.06 in
(1018 mb)
SE 6.9 mph
(SE 11 kph)
- 8SM
14:55
Partly Cloudy
88°F / 31°C 70°F / 21°C 55% 30.06 in
(1018 mb)
SE 9.2 mph
(SE 15 kph)
- 8SM
14:35
Partly Cloudy
88°F / 31°C 70°F / 21°C 55% 30.09 in
(1019 mb)
SE 6.9 mph
(SE 11 kph)
- 7SM
14:15
Partly Cloudy
84°F / 29°C 70°F / 21°C 62% 30.09 in
(1019 mb)
SSE 9.2 mph
(SSE 15 kph)
- 7SM
13:55
Partly Cloudy
84°F / 29°C 70°F / 21°C 62% 30.09 in
(1019 mb)
SSE 8.1 mph
(SSE 13 kph)
- 7SM
13:35
Partly Cloudy
86°F / 30°C 68°F / 20°C 55% 30.09 in
(1019 mb)
SSE 9.2 mph
(SSE 15 kph)
- 7SM
13:15
Partly Cloudy
86°F / 30°C 68°F / 20°C 55% 30.12 in
(1020 mb)
SE 6.9 mph
(SE 11 kph)
- 7SM
12:55
Mostly Cloudy
84°F / 29°C 70°F / 21°C 62% 30.12 in
(1020 mb)
SSE 8.1 mph
(SSE 13 kph)
- 7SM
12:35
Mostly Cloudy
84°F / 29°C 70°F / 21°C 62% 30.12 in
(1020 mb)
S 5.8 mph
(S 9 kph)
- 7SM
12:15
Partly Cloudy
84°F / 29°C 66°F / 19°C 55% 30.12 in
(1020 mb)
SSE 5.8 mph
(SSE 9 kph)
- 8SM
11:55
Mostly Cloudy
Hazy
82°F / 28°C 70°F / 21°C 66% 30.12 in
(1020 mb)
SSE 6.9 mph
(SSE 11 kph)
- 6SM
11:35
Mostly Cloudy
82°F / 28°C 70°F / 21°C 66% 30.15 in
(1021 mb)
SSE 10.4 mph
(SSE 17 kph)
- 7SM
11:15
Partly Cloudy
Hazy
82°F / 28°C 70°F / 21°C 66% 30.15 in
(1021 mb)
SE 6.9 mph
(SE 11 kph)
- 6SM
10:55
Partly Cloudy
Hazy
82°F / 28°C 70°F / 21°C 66% 30.15 in
(1021 mb)
SE 8.1 mph
(SE 13 kph)
- 6SM
10:35
Partly Cloudy
Hazy
81°F / 27°C 70°F / 21°C 70% 30.15 in
(1021 mb)
SE 6.9 mph
(SE 11 kph)
- 5SM
10:15
Partly Cloudy
Hazy
81°F / 27°C 72°F / 22°C 74% 30.15 in
(1021 mb)
SSE 6.9 mph
(SSE 11 kph)
- 5SM
09:55
Mostly Cloudy
Hazy
79°F / 26°C 72°F / 22°C 79% 30.15 in
(1021 mb)
SE 4.6 mph
(SE 7 kph)
- 5SM
09:35
Mostly Cloudy
Hazy
77°F / 25°C 72°F / 22°C 83% 30.15 in
(1021 mb)
SSE 5.8 mph
(SSE 9 kph)
- 4SM
09:15
Mostly Cloudy
Hazy
77°F / 25°C 72°F / 22°C 83% 30.15 in
(1021 mb)
SSE 5.8 mph
(SSE 9 kph)
- 4SM
08:55
Overcast
Hazy
75°F / 24°C 72°F / 22°C 89% 30.15 in
(1021 mb)
SE 5.8 mph
(SE 9 kph)
- 4SM
08:35
Overcast
Fog And Mist
75°F / 24°C 72°F / 22°C 89% 30.15 in
(1021 mb)
SE 5.8 mph
(SE 9 kph)
- 3SM
08:15
Mostly Cloudy
Fog And Mist
75°F / 24°C 72°F / 22°C 89% 30.12 in
(1020 mb)
SSE 5.8 mph
(SSE 9 kph)
- 3SM
07:55
Overcast
Fog And Mist
73°F / 23°C 72°F / 22°C 94% 30.12 in
(1020 mb)
SSE 6.9 mph
(SSE 11 kph)
- 3SM
07:35
Overcast
Fog And Mist
73°F / 23°C 72°F / 22°C 94% 30.12 in
(1020 mb)
SE 5.8 mph
(SE 9 kph)
- 2 1/2SM
07:15
Fog And Mist
73°F / 23°C 72°F / 22°C 94% 30.12 in
(1020 mb)
SSE 4.6 mph
(SSE 7 kph)
- 2 1/2SM
06:55
Overcast
Fog And Mist
72°F / 22°C 72°F / 22°C 100% 30.12 in
(1020 mb)
SSE 5.8 mph
(SSE 9 kph)
- 2SM
06:35
Overcast
Fog And Mist
72°F / 22°C 72°F / 22°C 100% 30.09 in
(1019 mb)
Calm - 1 1/2SM
06:15
Overcast
Fog And Mist
72°F / 22°C 72°F / 22°C 100% 30.09 in
(1019 mb)
Calm - 1 1/2SM
05:55
Overcast
Fog And Mist
72°F / 22°C 72°F / 22°C 100% 30.09 in
(1019 mb)
Calm - 1 3/4SM
05:35
Overcast
Fog And Mist
72°F / 22°C 72°F / 22°C 100% 30.06 in
(1018 mb)
SE 3.5 mph
(SE 6 kph)
- 2SM
05:15
Overcast
Fog And Mist
72°F / 22°C 72°F / 22°C 100% 30.09 in
(1019 mb)
SE 5.8 mph
(SE 9 kph)
- 3SM
04:55
Overcast
Fog And Mist
72°F / 22°C 72°F / 22°C 100% 30.06 in
(1018 mb)
SE 4.6 mph
(SE 7 kph)
- 3SM
04:35
Overcast
Fog And Mist
72°F / 22°C 72°F / 22°C 100% 30.06 in
(1018 mb)
Calm - 2 1/2SM
04:15
Overcast
Fog And Mist
72°F / 22°C 72°F / 22°C 100% 30.06 in
(1018 mb)
SE 4.6 mph
(SE 7 kph)
- 3SM
03:55
Overcast
Fog And Mist
72°F / 22°C 72°F / 22°C 100% 30.09 in
(1019 mb)
SE 3.5 mph
(SE 6 kph)
- 3SM
03:35
Overcast
Fog And Mist
72°F / 22°C 72°F / 22°C 100% 30.09 in
(1019 mb)
Calm - 3SM
03:15
Overcast
Fog And Mist
72°F / 22°C 72°F / 22°C 100% 30.09 in
(1019 mb)
SSE 5.8 mph
(SSE 9 kph)
- 3SM
02:55
Overcast
Fog And Mist
72°F / 22°C 72°F / 22°C 100% 30.09 in
(1019 mb)
SSE 5.8 mph
(SSE 9 kph)
- 3SM
02:35
Overcast
Fog And Mist
72°F / 22°C 72°F / 22°C 100% 30.09 in
(1019 mb)
SE 5.8 mph
(SE 9 kph)
- 3SM
02:15
Overcast
Fog And Mist
72°F / 22°C 72°F / 22°C 100% 30.09 in
(1019 mb)
SSE 6.9 mph
(SSE 11 kph)
- 3SM
01:55
Overcast
Fog And Mist
72°F / 22°C 72°F / 22°C 100% 30.09 in
(1019 mb)
SSE 4.6 mph
(SSE 7 kph)
- 3SM
01:35
Overcast
Fog And Mist
72°F / 22°C 72°F / 22°C 100% 30.09 in
(1019 mb)
SE 6.9 mph
(SE 11 kph)
- 4SM
01:15
Overcast
Fog And Mist
72°F / 22°C 72°F / 22°C 100% 30.09 in
(1019 mb)
SE 5.8 mph
(SE 9 kph)
- 4SM
00:55
Overcast
Fog And Mist
72°F / 22°C 70°F / 21°C 94% 30.09 in
(1019 mb)
SSE 4.6 mph
(SSE 7 kph)
- 4SM
00:35
Mostly Cloudy
Fog And Mist
72°F / 22°C 70°F / 21°C 94% 30.09 in
(1019 mb)
SE 5.8 mph
(SE 9 kph)
- 4SM
00:15
Mostly Cloudy
Fog And Mist
72°F / 22°C 70°F / 21°C 94% 30.12 in
(1020 mb)
SE 6.9 mph
(SE 11 kph)
- 4SM
Time Weather Temperature Dewpoint Humidity Pressure Winds Precip Visibility


Weather for websites

WeatherForYou.com, LLC is not responsible for any damages or problems caused by this service. Current weather conditions are obtained from the closest station including government and personal stations which may have varying degrees of accuracy. Weather forecasts are derived from the NOAA NDFD. Like all things, this site belongs to Jesus Christ... He just trusts us to maintain it. If you have any questions or comments email webmaster@weatherforyou.com

Copyright © 2015, WeatherForYou.com LLC. All rights reserved.